Location: Kumla
(59.1265°N, 15.1401°E)
Time: 15:39:42
(UTC+01:00)

A-11 Canister half - Pass Details

Date: 04 December 2023
Orbit: 1526 x 1682 km, 47.3° (Epoch: 24 February)

Event Time Altitude Azimuth Distance (km) Brightness Sun altitude
Rises 17:29:41 0° 176° (S) 4,922 11.8 -16.5°
Reaches altitude 10° 17:35:14 10° 152° (SSE) 3,940 11.0 -17.2°
Maximum altitude 17:39:19 13° 128° (SE) 3,681 10.6 -17.7°
Enters shadow 17:41:19 12° 115° (ESE) 3,743 10.6 -17.9°
Drops below altitude 10° 17:43:22 10° 104° (ESE) 3,930 - -18.2°
Sets 17:48:51 0° 80° (E) 4,900 - -18.9°
